| time (UTC) | temp F | wind direction | speed MPH | gust MPH | rain 1hr in | rain 24hr in | rain mn in | humidity % | barometer mb |
| 20260901233030 | 75 | 72 | 0.0 | 2.0 | 0.00 | 0.53 | 0.43 | 96 | 1014.3 |
| 20260901231531 | 75 | 72 | 0.0 | 0.0 | 0.00 | 0.53 | 0.43 | 96 | 1014.3 |
| 20260901230035 | 75 | 72 | 0.0 | 0.0 | 0.00 | 0.53 | 0.43 | 96 | 1013.8 |
| 20260901224529 | 75 | 72 | 0.0 | 0.0 | 0.00 | 0.53 | 0.43 | 96 | 1014.0 |
| 20260901223029 | 76 | 72 | 0.0 | 0.0 | 0.00 | 0.53 | 0.43 | 96 | 1013.5 |
| 20260901221533 | 76 | 72 | 0.0 | 0.0 | 0.00 | 0.53 | 0.43 | 95 | 1013.5 |
| 20260901220052 | 76 | 72 | 0.0 | 0.0 | 0.00 | 0.53 | 0.43 | 95 | 1013.4 |
| 20260901214526 | 76 | 72 | 0.0 | 0.0 | 0.00 | 0.53 | 0.43 | 95 | 1013.5 |
| 20260901213057 | 76 | 72 | 0.0 | 1.0 | 0.00 | 0.53 | 0.43 | 94 | 1013.4 |
| 20260901211525 | 76 | 72 | 0.0 | 1.0 | 0.00 | 0.53 | 0.43 | 95 | 1013.4 |
| 20260901210024 | 76 | 72 | 0.0 | 0.0 | 0.00 | 0.53 | 0.43 | 95 | 1013.4 |
| 20260901204533 | 76 | 72 | 0.0 | 0.0 | 0.00 | 0.53 | 0.43 | 96 | 1013.4 |
| 20260901203043 | 75 | 72 | 0.0 | 0.0 | 0.00 | 0.53 | 0.43 | 96 | 1013.5 |
| 20260901201520 | 75 | 72 | 0.0 | 0.0 | 0.01 | 0.53 | 0.43 | 96 | 1013.4 |
| 20260901200018 | 75 | 72 | 0.0 | 0.0 | 0.01 | 0.53 | 0.43 | 96 | 1013.4 |
| 20260901194513 | 75 | 72 | 0.0 | 1.0 | 0.01 | 0.53 | 0.43 | 96 | 1013.7 |
| 20260901193009 | 74 | 72 | 0.0 | 0.0 | 0.01 | 0.53 | 0.43 | 96 | 1013.7 |
| 20260901191504 | 74 | 72 | 0.0 | 0.0 | 0.00 | 0.52 | 0.42 | 97 | 1013.6 |
| 20260901190007 | 74 | 72 | 0.0 | 0.0 | 0.00 | 0.52 | 0.42 | 97 | 1013.8 |
| 20260901184502 | 74 | 72 | 0.0 | 2.0 | 0.00 | 0.52 | 0.42 | 97 | 1013.9 |
| 20260901183001 | 74 | 72 | 0.0 | 0.0 | 0.00 | 0.52 | 0.42 | 98 | 1013.8 |
| 20260901181559 | 73 | 72 | 0.0 | 0.0 | 0.00 | 0.52 | 0.42 | 98 | 1013.9 |
| 20260901180056 | 73 | 72 | 0.0 | 1.0 | 0.00 | 0.52 | 0.42 | 99 | 1013.7 |
| 20260901174551 | 73 | 72 | 0.0 | 1.0 | 0.01 | 0.52 | 0.42 | 99 | 1013.9 |
| 20260901173055 | 72 | 72 | 0.0 | 1.0 | 0.02 | 0.52 | 0.42 | 99 | 1013.8 |
| 20260901171543 | 72 | 87 | 0.0 | 2.0 | 0.02 | 0.52 | 0.42 | 99 | 1014.0 |
| 20260901170040 | 71 | 87 | 0.0 | 2.0 | 0.02 | 0.52 | 0.42 | 98 | 1014.4 |
| 20260901164536 | 70 | 87 | 0.0 | 0.0 | 0.01 | 0.51 | 0.41 | 98 | 1014.3 |
| 20260901163035 | 70 | 87 | 0.0 | 0.0 | 0.00 | 0.50 | 0.40 | 98 | 1014.8 |
| 20260901161537 | 71 | 87 | 0.0 | 0.0 | 0.01 | 0.50 | 0.40 | 98 | 1014.8 |
| 20260901160034 | 70 | 87 | 0.0 | 0.0 | 0.03 | 0.50 | 0.40 | 99 | 1014.5 |
| 20260901154536 | 70 | 87 | 0.0 | 0.0 | 0.05 | 0.50 | 0.40 | 98 | 1014.7 |
| 20260901153033 | 70 | 87 | 0.0 | 0.0 | 0.08 | 0.50 | 0.40 | 98 | 1014.8 |
| 20260901151527 | 70 | 87 | 0.0 | 0.0 | 0.07 | 0.49 | 0.39 | 98 | 1015.7 |
| 20260901150026 | 70 | 87 | 0.0 | 2.0 | 0.07 | 0.47 | 0.37 | 98 | 1015.7 |
| 20260901144525 | 70 | 87 | 0.0 | 0.0 | 0.05 | 0.45 | 0.35 | 98 | 1015.6 |
| 20260901143024 | 70 | 87 | 0.0 | 0.0 | 0.02 | 0.42 | 0.32 | 98 | 1015.3 |
| 20260901141524 | 70 | 87 | 0.0 | 0.0 | 0.01 | 0.41 | 0.31 | 98 | 1015.4 |
| 20260901140038 | 70 | 87 | 0.0 | 2.0 | 0.00 | 0.40 | 0.30 | 98 | 1015.4 |
| 20260901134524 | 70 | 87 | 0.0 | 0.0 | 0.00 | 0.40 | 0.30 | 98 | 1015.5 |
| 20260901133025 | 70 | 172 | 0.0 | 0.0 | 0.00 | 0.40 | 0.30 | 98 | 1015.1 |
| 20260901131520 | 69 | 172 | 0.0 | 0.0 | 0.00 | 0.40 | 0.30 | 98 | 1015.3 |
| 20260901130035 | 69 | 172 | 0.0 | 0.0 | 0.00 | 0.40 | 0.30 | 98 | 1015.3 |
| 20260901124520 | 69 | 172 | 0.0 | 0.0 | 0.00 | 0.40 | 0.30 | 98 | 1015.4 |
| 20260901123022 | 69 | 172 | 0.0 | 0.0 | 0.00 | 0.40 | 0.30 | 98 | 1015.4 |
| 20260901121519 | 69 | 172 | 0.0 | 0.0 | 0.00 | 0.40 | 0.30 | 98 | 1015.1 |
| 20260901120029 | 69 | 172 | 0.0 | 0.0 | 0.00 | 0.40 | 0.30 | 98 | 1015.1 |
| 20260901114519 | 69 | 172 | 0.0 | 0.0 | 0.01 | 0.40 | 0.30 | 98 | 1015.1 |
| 20260901113016 | 69 | 172 | 0.0 | 0.0 | 0.01 | 0.40 | 0.30 | 98 | 1015.4 |
| 20260901111516 | 69 | 172 | 0.0 | 1.0 | 0.01 | 0.40 | 0.30 | 98 | 1015.5 |
| 20260901110014 | 69 | 172 | 0.0 | 0.0 | 0.01 | 0.40 | 0.30 | 98 | 1015.4 |
| 20260901104513 | 69 | 172 | 0.0 | 0.0 | 0.00 | 0.39 | 0.28 | 98 | 1015.6 |
| 20260901103018 | 68 | 172 | 0.0 | 0.0 | 0.00 | 0.39 | 0.28 | 98 | 1015.3 |
| 20260901101512 | 68 | 172 | 0.0 | 0.0 | 0.00 | 0.39 | 0.28 | 98 | 1015.4 |
| 20260901100012 | 68 | 172 | 0.0 | 0.0 | 0.00 | 0.39 | 0.28 | 98 | 1015.2 |
| 20260901094514 | 68 | 172 | 0.0 | 0.0 | 0.00 | 0.39 | 0.28 | 98 | 1015.3 |
| 20260901093010 | 68 | 172 | 0.0 | 0.0 | 0.00 | 0.39 | 0.28 | 98 | 1015.2 |
| 20260901091510 | 68 | 172 | 0.0 | 0.0 | 0.00 | 0.39 | 0.28 | 98 | 1015.2 |
| 20260901090011 | 68 | 172 | 0.0 | 0.0 | 0.00 | 0.39 | 0.28 | 98 | 1015.3 |
| 20260901084506 | 68 | 172 | 0.0 | 0.0 | 0.00 | 0.39 | 0.28 | 97 | 1015.4 |
| 20260901083005 | 68 | 172 | 0.0 | 0.0 | 0.00 | 0.39 | 0.28 | 98 | 1015.7 |
| 20260901081504 | 69 | 172 | 0.0 | 0.0 | 0.00 | 0.39 | 0.28 | 97 | 1015.6 |
| 20260901080003 | 68 | 172 | 0.0 | 0.0 | 0.00 | 0.39 | 0.28 | 97 | 1015.6 |
| 20260901074505 | 69 | 172 | 0.0 | 0.0 | 0.00 | 0.39 | 0.28 | 97 | 1015.9 |
| 20260901073002 | 69 | 172 | 0.0 | 0.0 | 0.00 | 0.39 | 0.28 | 97 | 1015.9 |
| 20260901071559 | 68 | 172 | 0.0 | 0.0 | 0.00 | 0.39 | 0.28 | 97 | 1015.9 |
| 20260901070104 | 68 | 172 | 0.0 | 0.0 | 0.01 | 0.39 | 0.28 | 97 | 1016.1 |
| 20260901064559 | 68 | 172 | 0.0 | 0.0 | 0.01 | 0.39 | 0.28 | 97 | 1016.2 |
| 20260901063056 | 68 | 172 | 0.0 | 0.0 | 0.05 | 0.39 | 0.28 | 97 | 1016.1 |
| 20260901061555 | 68 | 172 | 0.0 | 0.0 | 0.06 | 0.39 | 0.28 | 97 | 1016.4 |
| 20260901060052 | 68 | 172 | 0.0 | 0.0 | 0.05 | 0.38 | 0.28 | 97 | 1016.7 |
| 20260901054552 | 68 | 172 | 0.0 | 2.0 | 0.06 | 0.38 | 0.28 | 97 | 1016.7 |
| 20260901053117 | 68 | 172 | 0.0 | 0.0 | 0.03 | 0.34 | 0.24 | 97 | 1016.7 |
| 20260901051604 | 68 | 172 | 0.0 | 2.0 | 0.18 | 0.33 | 0.23 | 97 | 1016.7 |
| 20260901050054 | 68 | 172 | 0.0 | 0.0 | 0.23 | 0.33 | 0.23 | 97 | 1016.7 |
| 20260901044603 | 69 | 172 | 0.0 | 0.0 | 0.24 | 0.32 | 0.22 | 97 | 1016.9 |
| 20260901043048 | 69 | 172 | 0.0 | 0.0 | 0.26 | 0.30 | 0.20 | 96 | 1016.9 |
| 20260901041545 | 68 | 172 | 0.0 | 0.0 | 0.12 | 0.15 | 0.05 | 96 | 1017.1 |
| 20260901040104 | 68 | 172 | 0.0 | 0.0 | 0.10 | 0.10 | 0.00 | 96 | 1017.2 |
| 20260901034644 | 68 | 172 | 0.0 | 0.0 | 0.08 | 0.08 | 0.08 | 96 | 1017.2 |
| 20260901033042 | 69 | 172 | 0.0 | 0.0 | 0.04 | 0.04 | 0.04 | 95 | 1017.2 |
| 20260901031540 | 69 | 172 | 0.0 | 0.0 | 0.03 | 0.03 | 0.03 | 95 | 1017.3 |
| 20260901030039 | 69 | 172 | 0.0 | 0.0 | 0.00 | 0.00 | 0.00 | 95 | 1017.4 |
| 20260901024545 | 69 | 172 | 0.0 | 0.0 | 0.00 | 0.01 | 0.00 | 95 | 1017.4 |
| 20260901023056 | 69 | 172 | 0.0 | 0.0 | 0.00 | 0.01 | 0.00 | 95 | 1017.6 |
| 20260901021537 | 69 | 172 | 0.0 | 0.0 | 0.00 | 0.01 | 0.00 | 94 | 1017.8 |
| 20260901020041 | 69 | 172 | 0.0 | 0.0 | 0.00 | 0.01 | 0.00 | 94 | 1017.8 |
| 20260901014544 | 69 | 172 | 0.0 | 0.0 | 0.00 | 0.04 | 0.00 | 94 | 1017.8 |
| 20260901013036 | 69 | 172 | 0.0 | 0.0 | 0.00 | 0.04 | 0.00 | 94 | 1017.9 |
| 20260901011534 | 69 | 172 | 0.0 | 0.0 | 0.00 | 0.04 | 0.00 | 94 | 1017.8 |
| 20260901010034 | 70 | 172 | 0.0 | 0.0 | 0.00 | 0.04 | 0.00 | 94 | 1017.8 |
| 20260901004535 | 70 | 172 | 0.0 | 0.0 | 0.00 | 0.06 | 0.00 | 93 | 1017.8 |
| 20260901003033 | 70 | 172 | 0.0 | 0.0 | 0.00 | 0.06 | 0.00 | 93 | 1017.5 |
| 20260901001532 | 70 | 172 | 0.0 | 0.0 | 0.00 | 0.06 | 0.00 | 92 | 1017.5 |
| 20260901000031 | 71 | 172 | 0.0 | 0.0 | 0.00 | 0.06 | 0.00 | 92 | 1017.4 |
| 20260831234531 | 71 | 172 | 0.0 | 0.0 | 0.00 | 0.07 | 0.00 | 91 | 1017.5 |